FENGYUN 1C DEB, 30494

Orbit data source: Space-Track

FENGYUN 1C DEB, 30494 is space debris in SSO originally from a launch on Mon, 10 May 1999 UTC launched from the Taiyaun Space Center, China (TSC). Fengyun 1C debris stems from the Chinese weather satellite Fengyun-1C, which was intentionally destroyed by a Chinese anti-satellite missile in 2007. This event dramatically increased the amount of space debris, with thousands of trackable fragments posing hazards to satellites and human spaceflight. The Fengyun 1C debris cloud has become a focal point in discussions about space sustainability and the need for international regulations to prevent the creation of new debris.

Loading next visibility...
Identifier
30494, 1999-025AHG
Orbit
SSO
Country
Flag of CNCN / PRC
Related business
Manufacturer
Unknown
Mission
Spacecraft
Bus & Motor
Unknown
Mass
Unknown
Launch date (UTC)
1999-05-10 (27 years ago)
Launch vehicle
Unknown
Launch site
Taiyaun Space Center, China (TSC)
Object type
Payload
Rocket body
Debris
Shape & HBR
Unknown shape, 0.1 m
Radar Cross Section
Small (<0.1 m²)

Expand to show TLE details & history
Last TLE update: 2 days ago

TLE from 2 days ago
0 FENGYUN 1C DEB
1 30494U 99025AHG 25311.54650315  .00002468  00000-0  21597-2 0  9992
2 30494  99.2860 347.6116 0184479 315.5767  43.0713 13.79191957940015
Epoch: 2025-11-07T13:06Z
TLE epoch observation values (Epoch: 2025-11-07T13:06:57.872Z)
Latitude
0.00004°
Longitude
103.88155°
Altitude
871.785 km
Speed
7.466 km/s
True Right ascension
23h 10m 26s
True Declination
0° 00' 00"
Sunlit
Object was in full shadow at epoch
Visualization orbit readout
Latitude
Unknown
Longitude
Unknown
Altitude
Unknown
Speed
Unknown
Apparent Right ascension
Unknown
Apparent Declination
Unknown
Sunlit
N/A
Visualization observer readout
Local Sidereal Time
01:25:58
Azimuth
Unknown
Elevation
Unknown
Doppler factor
Unknown
Orbital elements
Apogee altitude
1,099.441 km
Perigee altitude
828.547 km
Semi-major axis
7,342.131 km
Eccentricity
0.01845
Inclination
99.286°
RAAN
347.6116°
Arg. of periapsis
315.5767°
True anomaly
44.53951°
Mean anomaly
43.0713°
Eccentric anomaly
43.80293°
Mean motion
3.44993 °/min
Orbital period
104.35 mins
BSTAR
0.0021597
Loading maneuver chart data...
Computing Atmospheric mass density...

Documentation

Showing up to 5 results
|